Location: Feydey
(46.3431°N, 7.0106°E)
Time: 14:11:53
(UTC+00:00)

FALCON 9 DEB - Pass Details

Date: 20 June 2021
Orbit: 363 x 377 km, 53.0° (Epoch: 02 August)

Event Time Altitude Azimuth Distance (km) Brightness Sun altitude
Rises 20:45:07 0° 231° (SW) 2,248 6.8 -10.5°
Reaches altitude 10° 20:47:09 10° 228° (SW) 1,400 5.7 -10.7°
Maximum altitude 20:50:16 65° 146° (SE) 426 2.8 -11.0°
Drops below altitude 10° 20:53:24 10° 64° (ENE) 1,412 5.6 -11.4°
Sets 20:55:28 0° 61° (ENE) 2,269 6.7 -11.6°
